Flag for Antigua and Barbuda Weather past 2 weeks in Saint John's, Antigua and Barbuda

Now
82 °F

Passing clouds.


Feels Like: 88 °F
Forecast: 80 / 86 °F
Wind: 13 mph from East

Location: Vc Bird International Antigua Airport

Current Time: Jul 30, 2015 at 12:10:54 AM

Latest Report: Jul 29, 2015 at 11:00 PM


Visibility: N/A

Pressure: 30.04 "Hg

Humidity: 74%

Dew point: 73 °F

Location of Saint John'sLocation

Historic Weather in Saint John's — Graph

°F

Saint John's temperature yesterday

Maximum temperature yesterday: 86 °F (at 12:00 PM)
Minimum temperature yesterday: 81 °F (at 12:00 AM)
Average temperature yesterday: 83 °F

Past Weeks' High & Low Weather Summary

 TemperatureHumidityPressure
High88 °F (Jul 24, 1:00 PM)94% (Jul 20, 4:00 PM)30.12 "Hg (Jul 20, 4:00 PM)
Low75 °F (Jul 22, 8:00 AM)58% (Jul 19, 9:00 AM)29.98 "Hg (Jul 15, 3:00 PM)
Average82 °F74%30.03 "Hg
* Reported Jul 14 11:00 PM — Jul 29 11:00 PM, Saint John's, Weather by CustomWeather, © 2015

Note: Actual official high and low records may vary slightly from our data, if they occured in-between our weather recording intervals... More about our weather records

Advertising

Saint John's weather history for previous 24 hours

 ConditionsComfort  
Time TempWeatherWind HumidityBarometerVisibility
11:00 PM
Wed, Jul 29
82 °FPassing clouds.13 mph74%30.04 "HgN/A
10:00 PM81 °FPassing clouds.12 mph79%30.04 "HgN/A
9:00 PM82 °FPassing clouds.13 mph70%30.04 "HgN/A
8:00 PM82 °FPassing clouds.12 mph70%30.01 "HgN/A
7:00 PM82 °FPassing clouds.13 mph70%30.01 "HgN/A
6:00 PM82 °FScattered clouds.12 mph74%29.98 "HgN/A
5:00 PM84 °FPartly sunny.12 mph70%29.98 "HgN/A
4:00 PM86 °FPartly sunny.12 mph66%29.98 "HgN/A
3:00 PM86 °FScattered clouds.14 mph66%29.98 "HgN/A
2:00 PM86 °FPassing clouds.14 mph62%30.01 "HgN/A
1:00 PM86 °FPassing clouds.14 mph62%30.01 "HgN/A
12:00 PM86 °FPassing clouds.15 mph62%30.04 "HgN/A
8:00 AM82 °FScattered clouds.14 mph74%30.01 "HgN/A
7:00 AM81 °FPassing clouds.10 mph74%30.01 "HgN/A
6:00 AM81 °FPassing clouds.13 mph74%30.01 "HgN/A
5:00 AM81 °FPassing clouds.12 mph74%30.01 "HgN/A
4:00 AM81 °FPassing clouds.14 mph74%29.98 "HgN/A
2:00 AM81 °FPassing clouds.12 mph74%30.01 "HgN/A
1:00 AM81 °FPassing clouds.12 mph74%30.01 "HgN/A
12:00 AM81 °FPassing clouds.10 mph74%30.01 "HgN/A
Weather by CustomWeather, © 2015

See weather overviewHow to use our weather pages